Grand Rapids, MI

11:48 AM EST on January 19, 2018 (GMT -0500)
Gerald R. Ford International

Weather History for KGRR - December, 2011

Change the Weather History Date:

Monday, December 26, 2011

  Actual Average Record
Temperature  
Mean Temperature 40 °F 26 °F  
Max Temperature 47 °F 32 °F 53 °F (2016)
Min Temperature 32 °F 21 °F -6 °F (1951)
Degree Days  
Heating Degree Days 25 39  
Month to date heating degree days 766 915  
Since 1 July heating degree days 1939 2253  
Cooling Degree Days 0 0  
Month to date cooling degree days 0 0  
Year to date cooling degree days 894 699  
Moisture  
Dew Point 27 °F    
Average Humidity 59    
Maximum Humidity 75    
Minimum Humidity 42    
Precipitation  
Precipitation 0.00 in 0.08 in 0.66 in (1916)
Month to date precipitation 1.98 2.13  
Year to date precipitation 44.48 37.90  
Snow  
Snow 0.00 in 0.80 in 11.90 in (2001)
Month to date snowfall 2.9 17.9  
Since 1 July snowfall 3.6 25.2  
Snow Depth 0.00 in    
Sea Level Pressure  
Sea Level Pressure 30.16 in    
Wind  
Wind Speed 10 mph (SW)    
Max Wind Speed 20 mph    
Max Gust Speed 25 mph    
Visibility 10 miles    
Events      
T = Trace of Precipitation, MM = Missing Value Source: NWS Daily Summary

Daily Weather History Graph

Daily Weather History Graph

Search for Another Location

Airport or City:

Trip Planner

Search our weather history database for the weather conditions in past years. The results will help you decide how hot, cold, wet, or windy it might be!

Date:

Astronomy

Dec. 26, 2011 Rise Set
Actual Time 8:11 AM EST 5:13 PM EST
Civil Twilight 7:39 AM EST 5:45 PM EST
Nautical Twilight 7:03 AM EST 6:21 PM EST
Astronomical Twilight 6:29 AM EST 6:56 PM EST
Moon 9:28 AM EST (12/26) 7:43 PM EST (12/26)
Length of Visible Light 10h 06m
Length of Day
9h 01m
Waxing Crescent, 5% of the Moon is Illuminated
Dec 26
Waxing Crescent
Jan 1
First Quarter
Jan 9
Full
Jan 16
Last Quarter
Jan 23
New

Hourly Weather History & Observations

Time (EST) Temp. Windchill Dew Point Humidity Pressure Visibility Wind Dir Wind Speed Gust Speed Precip Events Conditions
12:53 AM 37.0 °F 33.3 °F 26.1 °F 65% 30.26 in 10.0 mi NW 4.6 mph - N/A   Overcast
1:53 AM 37.0 °F - 27.0 °F 67% 30.25 in 10.0 mi Calm Calm - N/A   Overcast
2:53 AM 37.0 °F 32.4 °F 26.1 °F 65% 30.27 in 10.0 mi West 5.8 mph - N/A   Overcast
3:53 AM 33.1 °F 27.7 °F 26.1 °F 75% 30.29 in 10.0 mi WSW 5.8 mph - N/A   Overcast
4:53 AM 36.0 °F 29.6 °F 26.1 °F 67% 30.30 in 10.0 mi West 8.1 mph - N/A   Overcast
5:53 AM 36.0 °F 30.3 °F 26.1 °F 67% 30.30 in 10.0 mi WSW 6.9 mph - N/A   Overcast
6:53 AM 37.0 °F 31.0 °F 27.0 °F 67% 30.30 in 10.0 mi SW 8.1 mph - N/A   Overcast
7:22 AM 35.6 °F 29.9 °F 26.6 °F 70% 30.26 in 10.0 mi SSW 6.9 mph - N/A   Mostly Cloudy
7:45 AM 35.6 °F 29.9 °F 26.6 °F 70% 30.26 in 10.0 mi SSW 6.9 mph - N/A   Scattered Clouds
7:53 AM 35.1 °F 29.3 °F 26.1 °F 70% 30.28 in 10.0 mi SSW 6.9 mph - N/A   Scattered Clouds
8:53 AM 33.1 °F 27.7 °F 26.1 °F 75% 30.26 in 10.0 mi South 5.8 mph - N/A   Clear
9:53 AM 37.0 °F 29.3 °F 28.0 °F 70% 30.26 in 10.0 mi SSW 11.5 mph - N/A   Clear
10:53 AM 39.9 °F 31.4 °F 28.0 °F 63% 30.24 in 10.0 mi SSW 16.1 mph 20.7 mph N/A   Scattered Clouds
11:53 AM 42.1 °F 34.5 °F 27.0 °F 55% 30.19 in 10.0 mi South 15.0 mph - N/A   Partly Cloudy
12:53 PM 43.0 °F 35.1 °F 27.0 °F 53% 30.16 in 10.0 mi SSW 17.3 mph 24.2 mph N/A   Partly Cloudy
1:53 PM 46.0 °F 41.0 °F 27.0 °F 47% 30.12 in 10.0 mi SSW 10.4 mph 20.7 mph N/A   Partly Cloudy
2:53 PM 46.9 °F - 25.0 °F 42% 30.09 in 10.0 mi SSW 17.3 mph 20.7 mph N/A   Partly Cloudy
3:53 PM 46.0 °F 40.2 °F 25.0 °F 44% 30.07 in 10.0 mi SSW 12.7 mph - N/A   Partly Cloudy
4:53 PM 43.0 °F 37.7 °F 26.1 °F 51% 30.06 in 10.0 mi SSW 9.2 mph - N/A   Scattered Clouds
5:53 PM 41.0 °F 34.7 °F 25.0 °F 53% 30.06 in 10.0 mi SSW 10.4 mph - N/A   Scattered Clouds
6:53 PM 39.0 °F 32.8 °F 26.1 °F 60% 30.03 in 10.0 mi South 9.2 mph - N/A   Overcast
7:53 PM 41.0 °F 34.3 °F 26.1 °F 55% 30.01 in 10.0 mi SSW 11.5 mph - N/A   Overcast
8:53 PM 39.9 °F 32.9 °F 27.0 °F 60% 29.98 in 10.0 mi SW 11.5 mph - N/A   Mostly Cloudy
9:53 PM 39.0 °F 31.8 °F 28.0 °F 65% 29.97 in 10.0 mi SW 11.5 mph - N/A   Mostly Cloudy
10:53 PM 39.0 °F 31.8 °F 28.0 °F 65% 29.93 in 10.0 mi SSW 11.5 mph - N/A   Mostly Cloudy
11:53 PM 39.0 °F 31.8 °F 28.0 °F 65% 29.90 in 10.0 mi SSW 11.5 mph - N/A   Mostly Cloudy